User: anonymous
Location: Red Shale Campground
(45.5700°N, 106.1600°W)
Time: 17:40:30
(UTC-06:00)
Language:

FENGYUN 3A - Orbit

View from above orbital plane
View from above orbital plane
View from above satellite
View from above satellite

Ground track
Ground track

The orbit data is extracted from the following two-line orbital elements,

1 32958U 08026A   14212.25440624  .00000039  00000-0  38389-4 0  2192
2 32958 098.5511 269.6002 0010496 087.4149 272.8235 14.19460861320099
Epoch (UTC): 31 July 2014 06:06:20
Eccentricity: 0.0010496
inclination: 98.5511°
perigee height: 819 km
apogee height: 835 km
right ascension of ascending node: 269.6002°
argument of perigee: 87.4149°
revolutions per day: 14.19460861
mean anomaly at epoch: 272.8235°
orbit number at epoch: 32009

The dashed part of the orbit path shows where the satellite is in the earth's shadow,  

DLR